RH
12 14 13 10 9 8 6 6 5 5 5 6 7 7 7 8 9 10 13 19 25 24 15 11 19 24 18 15 15 17 19 22 25 31 34 36 37 37 37 39 41 43
23 25 25 23 19 14 11 10 9 7 7 7 9 9 8 8 9 10 13 19 26 28 20 12 16 22 19 14 15 17 19 23 28 33 37 40 40 39 42 46 48 47
29 31 34 34 31 27 23 21 17 14 11 10 10 11 10 9 9 10 12 18 26 30 25 15 14 20 20 14 14 17 20 24 28 35 41 42 41 42 44 45 45 45
33 34 36 37 37 36 35 32 27 22 19 16 15 16 16 13 10 10 11 16 26 32 29 19 13 19 21 15 13 17 21 24 28 37 43 42 42 44 42 39 39 41
40 38 37 38 40 40 39 38 35 32 28 25 24 24 24 20 15 12 10 13 25 34 33 22 14 17 22 17 13 16 21 23 27 37 43 42 43 42 37 38 43 46
48 44 40 40 41 42 43 43 42 40 37 34 33 33 32 29 24 19 13 13 23 34 35 26 15 17 23 20 14 15 20 23 26 34 42 44 43 39 38 43 48 51
54 49 44 41 41 42 46 48 47 46 44 42 41 40 38 36 32 28 25 21 26 35 37 28 17 18 25 23 17 16 19 22 25 31 40 45 41 38 41 45 47 54
58 51 45 40 38 39 44 49 50 49 48 46 44 43 41 39 37 35 35 32 32 36 38 29 18 18 27 28 21 17 18 23 25 28 36 42 41 41 45 46 46 54
61 53 45 39 36 37 39 43 46 47 47 46 45 44 42 40 38 37 38 38 37 38 38 30 19 19 29 33 26 19 19 23 26 29 35 40 41 44 48 49 51 54
62 53 44 39 38 38 37 36 36 37 37 38 38 39 39 39 37 37 38 38 38 39 37 30 20 21 31 36 29 21 19 23 26 29 35 39 40 46 51 52 55 56
60 51 42 40 40 40 39 36 33 30 27 26 25 25 27 29 30 32 33 35 37 39 38 31 22 23 31 35 30 22 20 24 27 30 34 36 38 43 48 51 55 56
56 48 43 44 46 45 44 40 32 26 20 16 14 13 14 15 17 21 25 30 36 39 38 31 24 23 28 31 29 23 22 25 28 32 34 35 37 39 41 46 52 54
54 47 46 49 51 51 48 42 35 28 23 20 18 16 15 14 16 19 22 26 32 38 38 31 24 23 25 27 26 23 23 26 30 33 35 38 41 40 38 42 46 52
53 48 49 54 57 56 50 45 42 38 34 33 33 32 28 22 19 22 27 30 31 34 36 29 22 21 22 24 26 25 25 28 31 34 37 41 45 43 38 37 41 52
53 50 53 59 62 58 52 50 49 46 45 47 48 48 45 37 27 22 24 30 32 33 33 26 19 18 21 27 29 28 28 29 32 36 39 43 47 44 38 34 38 48
51 52 56 60 62 59 57 57 57 55 55 57 56 55 55 52 43 29 20 22 27 32 30 23 17 17 23 29 31 30 30 30 33 39 43 47 48 44 38 35 36 42
53 55 58 60 60 59 58 60 63 64 64 64 62 60 59 58 52 39 27 20 19 23 25 21 17 19 24 28 30 30 30 31 33 39 44 48 48 43 39 36 34 37
57 59 60 60 59 57 57 59 63 67 67 66 65 64 63 62 58 47 36 28 20 17 18 17 17 20 24 27 29 29 28 30 33 36 42 47 47 41 37 36 36 37
61 59 58 57 55 54 54 55 59 64 68 68 68 67 66 66 63 53 42 35 27 21 18 16 18 21 24 27 29 29 27 29 33 36 39 43 43 38 35 35 38 39
66 60 57 55 54 53 53 54 58 65 70 71 70 70 68 68 66 57 45 37 32 27 23 20 19 21 24 28 30 30 28 29 33 37 37 36 37 37 36 36 39 42
73 68 63 59 57 55 54 56 61 66 69 70 71 70 69 69 67 59 48 40 36 32 28 26 23 22 24 29 32 32 30 30 33 37 36 33 34 36 38 39 41 42
74 73 70 66 62 60 59 59 61 63 64 64 65 66 67 69 69 63 54 46 40 36 32 30 29 26 25 29 33 35 33 33 35 38 38 35 34 35 39 41 43 45
67 69 72 72 71 68 67 65 65 66 65 64 63 63 65 69 71 68 62 54 47 41 37 35 34 31 29 30 34 36 37 36 37 39 40 39 37 36 39 42 47 51
62 65 69 74 77 77 75 71 70 69 69 70 69 65 65 68 69 69 66 61 56 50 45 42 39 35 34 33 35 37 39 40 41 42 43 43 40 38 39 45 52 57
63 65 68 73 75 76 76 74 73 73 74 75 73 68 68 68 67 67 67 65 63 59 54 48 43 40 40 37 35 37 40 41 42 42 43 44 43 42 43 48 55 59
66 67 71 75 75 74 74 73 72 74 76 75 69 62 63 66 66 66 66 65 64 63 61 56 51 48 49 48 41 37 38 42 43 43 44 46 47 44 45 50 55 59
Wind_Speed
16 15 15 15 16 16 17 17 17 17 17 17 16 15 14 14 13 13 12 11 12 12 11 11 10 9 9 6 4 5 7 8 8 8 9 9 10 11 11 12 12 13
18 17 17 16 16 17 17 18 18 18 18 18 17 16 16 15 15 15 14 13 12 12 12 12 11 10 10 8 5 4 5 6 7 8 9 10 11 12 12 12 12 13
19 19 18 18 19 19 19 19 19 19 19 19 18 18 17 17 17 17 16 14 13 13 13 13 12 11 11 10 7 4 4 5 6 8 9 9 11 12 13 14 14 14
20 20 20 21 21 22 21 21 20 20 20 20 20 20 19 18 18 18 18 16 15 14 13 14 14 12 12 12 9 6 4 4 6 7 9 9 10 12 14 14 14 15
20 20 21 22 23 24 23 22 22 21 21 22 22 21 20 20 19 19 19 18 17 15 14 15 15 13 13 13 12 8 6 5 6 7 9 9 10 12 13 14 15 16
19 19 20 21 22 24 24 23 24 23 23 23 23 23 22 21 21 21 21 20 19 17 16 15 16 15 14 15 14 11 8 7 7 8 9 10 11 12 13 14 15 16
19 19 20 20 21 22 23 24 25 24 24 24 25 24 23 22 22 22 22 22 21 20 18 16 17 17 16 15 16 14 11 9 9 9 10 11 12 12 14 15 16 17
21 20 20 20 20 20 21 23 24 25 25 25 25 25 25 24 24 24 24 24 23 22 20 18 18 18 17 17 17 16 13 11 10 10 11 12 13 13 15 17 18 19
21 20 19 18 18 19 19 21 23 25 26 26 26 27 26 26 25 25 25 25 25 23 21 19 19 19 18 18 18 18 15 13 12 12 12 13 14 14 16 18 20 21
21 19 18 17 17 18 18 19 21 22 24 25 26 26 27 27 26 26 27 27 26 24 22 21 20 21 20 20 20 19 17 15 13 13 14 15 15 14 16 19 21 21
21 19 18 17 17 17 17 18 19 19 20 21 23 24 25 25 26 27 27 27 26 25 23 22 23 23 22 22 22 21 19 16 15 14 15 15 16 15 17 20 21 22
21 19 17 17 16 16 16 17 16 16 16 16 17 18 19 20 22 24 26 26 26 25 25 24 25 25 24 23 23 22 20 18 16 16 16 16 16 16 18 20 21 22
21 19 18 17 16 16 15 14 12 11 11 11 11 11 11 13 15 18 21 23 24 26 26 26 27 26 25 25 24 22 21 19 19 19 18 17 17 17 19 20 21 22
21 19 18 17 16 15 14 12 9 8 7 8 8 8 9 9 10 13 15 18 22 25 27 27 28 27 26 26 25 23 22 21 21 21 20 19 18 18 19 20 20 21
21 20 19 18 16 15 13 11 10 8 7 8 8 9 10 10 10 11 13 15 19 24 27 28 28 27 26 27 26 25 24 23 24 24 23 21 20 19 19 21 21 21
21 21 20 18 16 14 13 12 12 11 10 10 11 11 12 12 12 12 12 15 18 23 27 28 27 27 27 28 28 27 26 26 26 26 25 23 22 21 21 22 22 23
20 20 20 18 16 15 14 13 14 14 14 13 13 14 14 14 13 12 13 15 18 22 25 27 27 27 28 29 29 29 29 28 28 29 28 26 25 24 24 24 24 26
18 19 19 18 17 17 16 15 15 16 16 16 16 17 18 16 14 13 14 15 17 20 23 24 27 29 30 30 30 31 31 31 31 32 31 29 27 27 26 26 26 27
17 18 17 18 18 18 19 19 17 17 17 19 20 20 20 19 16 14 14 15 16 18 20 22 26 30 31 31 32 33 34 34 34 34 33 33 31 30 29 28 28 28
19 18 17 17 18 19 20 21 19 18 18 19 20 21 20 19 18 16 15 15 16 17 19 22 26 29 31 32 33 35 36 37 37 37 36 36 35 33 31 30 30 30
22 21 20 18 18 20 21 21 20 19 18 18 19 20 20 19 19 18 17 16 17 19 20 22 24 27 31 33 35 36 38 40 40 39 38 38 38 36 34 33 32 31
24 23 23 22 20 20 21 22 22 21 20 20 21 22 23 22 22 21 19 19 19 20 21 22 23 25 28 33 36 38 40 42 42 41 40 39 40 39 37 35 34 33
24 26 26 26 24 23 22 23 23 23 23 23 24 25 26 26 26 25 23 23 23 23 23 24 25 24 26 31 37 40 43 43 43 43 42 42 42 42 40 38 35 35
24 27 28 28 28 27 26 25 25 25 26 27 28 30 30 29 30 29 28 27 27 26 25 26 28 27 27 30 36 41 44 45 45 45 45 44 44 44 42 40 37 37
27 27 28 29 29 28 28 29 29 29 29 30 32 33 33 33 33 33 32 31 30 30 29 29 30 30 29 30 35 41 45 47 48 48 48 47 46 46 44 42 40 40
30 30 30 32 32 31 31 32 33 32 32 32 32 32 32 34 35 35 35 34 33 34 34 33 33 33 31 32 35 40 44 48 50 51 51 50 49 48 47 45 43 43
Wind_Direction
220 220 222 227 231 235 238 240 240 241 243 247 251 255 260 266 269 272 281 293 304 311 302 284 282 289 293 306 340 0 6 6 6 5 3 357 353 352 354 356 357 357
224 224 225 229 232 235 239 241 242 243 245 247 250 254 257 260 263 267 274 285 295 305 302 286 278 283 289 295 315 345 359 2 0 356 352 347 342 343 346 349 351 354
231 231 231 232 234 235 238 240 242 244 247 249 251 253 255 258 261 264 269 278 287 296 298 287 275 277 284 287 295 317 340 352 351 344 341 338 335 337 340 343 347 350
233 234 235 235 236 238 239 241 243 245 247 250 252 254 257 260 262 264 266 272 280 288 293 285 274 272 278 282 285 294 311 328 335 332 331 330 329 331 333 337 342 344
236 236 237 238 240 241 241 242 244 245 246 248 251 254 256 259 261 263 265 268 274 282 286 281 272 269 274 278 279 283 291 302 313 318 321 322 323 324 325 331 337 338
241 240 241 241 242 243 243 244 244 245 247 249 251 254 256 259 261 263 264 266 270 277 280 277 269 265 268 274 276 277 279 286 295 304 311 314 314 316 318 324 331 333
239 242 243 243 243 243 243 244 246 247 248 250 252 254 256 259 261 262 264 265 267 272 275 271 264 261 264 270 274 275 274 278 284 291 300 305 306 310 314 319 326 329
238 242 245 247 247 246 244 244 246 248 249 250 252 254 256 257 259 261 263 264 266 269 270 265 259 258 261 267 271 273 273 275 280 286 293 297 300 306 312 317 322 324
237 242 246 248 248 247 245 245 246 248 250 252 253 255 256 257 258 259 261 263 264 266 265 260 254 254 258 263 267 270 272 274 280 285 288 290 294 301 310 314 316 318
237 241 245 245 245 245 245 246 248 250 253 255 256 257 259 259 259 260 261 263 263 264 262 256 251 250 254 259 262 265 268 271 276 282 284 285 287 294 306 312 312 312
236 240 242 242 242 244 246 248 251 253 256 259 260 261 262 262 262 262 263 263 262 260 257 252 248 247 249 254 257 261 265 268 273 275 277 279 281 285 298 306 309 308
237 240 241 240 242 245 249 251 252 254 257 261 266 269 269 268 267 266 265 263 259 255 252 248 246 245 247 251 254 258 263 266 269 271 272 273 273 277 288 297 302 304
238 239 237 238 243 247 250 253 256 258 261 269 279 287 288 284 278 273 269 262 255 250 248 246 245 245 247 250 253 256 260 264 266 268 269 268 268 273 282 291 299 304
237 235 233 236 243 248 251 256 263 269 277 292 309 316 314 305 293 282 273 263 253 247 247 247 245 245 248 252 254 256 258 261 262 265 267 267 269 274 280 288 297 304
232 230 231 233 239 246 252 258 266 276 288 305 318 322 321 318 307 292 279 269 258 251 251 251 249 248 251 254 256 256 257 257 259 263 266 268 270 274 280 287 295 301
231 230 232 233 237 243 249 256 265 275 286 297 304 309 312 314 311 301 286 273 264 258 257 257 255 253 254 257 257 256 256 255 257 262 265 267 269 274 280 287 292 297
235 236 238 239 239 240 245 252 260 268 278 286 292 297 300 302 304 301 289 277 269 264 261 260 259 256 256 258 258 256 255 255 258 261 263 265 268 273 281 286 291 295
239 243 245 245 244 243 245 249 255 263 273 280 285 288 290 292 293 292 288 283 275 268 265 264 261 257 258 260 259 257 256 256 259 262 264 265 268 273 280 285 289 293
242 246 248 249 248 246 247 250 254 260 267 273 276 279 282 286 288 284 280 280 277 272 268 266 262 259 260 261 260 259 258 258 260 263 265 267 270 274 280 285 289 292
243 246 247 247 249 250 251 253 257 260 263 266 271 274 277 281 282 277 273 273 274 272 268 265 263 261 261 261 261 261 260 259 261 263 266 270 272 275 280 285 289 293
240 244 247 249 252 255 256 256 259 262 263 267 273 278 280 278 276 274 271 269 270 270 268 265 263 261 260 261 262 263 261 261 262 263 267 271 274 277 281 285 289 293
242 245 247 249 252 256 258 258 260 263 266 269 272 276 278 277 275 274 271 266 264 265 266 267 265 261 260 261 262 263 262 262 263 265 268 272 275 278 281 285 288 291
250 249 248 248 250 255 260 262 263 264 267 268 268 269 270 271 272 271 267 264 262 262 265 268 268 264 261 260 260 261 261 262 265 266 267 270 274 278 282 285 286 287
256 254 252 249 249 252 257 263 265 266 267 266 265 264 263 265 267 267 264 263 263 263 264 266 268 267 264 260 259 259 260 261 263 266 267 269 272 277 282 284 284 284
260 261 257 252 251 252 254 259 263 264 264 265 267 267 265 263 262 264 264 264 263 263 263 264 266 267 267 266 262 260 260 261 263 265 267 268 272 276 280 281 281 281
260 262 257 253 253 253 253 257 261 262 264 269 274 276 274 268 265 265 266 265 264 264 264 264 265 267 269 271 268 264 262 261 262 264 266 267 270 274 277 278 278 280